FENGYUN 1C DEB, 30161

Orbit data source: Space-Track

FENGYUN 1C DEB, 30161 is space debris in SSO originally from a launch on Mon, 10 May 1999 UTC launched from the Taiyaun Space Center, China (TSC). Fengyun 1C debris stems from the Chinese weather satellite Fengyun-1C, which was intentionally destroyed by a Chinese anti-satellite missile in 2007. This event dramatically increased the amount of space debris, with thousands of trackable fragments posing hazards to satellites and human spaceflight. The Fengyun 1C debris cloud has become a focal point in discussions about space sustainability and the need for international regulations to prevent the creation of new debris.

Loading next visibility...
Identifier
30161, 1999-025TS
Orbit
SSO
Country
Flag of CNCN / PRC
Related business
Manufacturer
Unknown
Mission
Spacecraft
Bus & Motor
Unknown
Mass
Unknown
Launch date (UTC)
1999-05-10 (27 years ago)
Launch vehicle
Unknown
Launch site
Taiyaun Space Center, China (TSC)
Object type
Payload
Rocket body
Debris
Shape & HBR
Unknown shape, 0.1 m
Radar Cross Section
Medium (>0.1 m² and <1 m²)

Expand to show TLE details & history
Last TLE update: 1 day ago

TLE from 1 day ago
0 FENGYUN 1C DEB
1 30161U 99025TS  26235.95935851  .00000971  00000-0  11428-2 0  9994
2 30161 100.5171 242.7769 0326985   3.6365  25.0488 13.50436814959905
Epoch: 2026-08-23T23:01Z
TLE epoch observation values (Epoch: 2026-08-23T23:01:28.575Z)
Latitude
29.82352°
Longitude
-80.91667°
Altitude
855.04 km
Speed
7.536 km/s
True Right ascension
15h 46m 48s
True Declination
29° 40' 39"
Sunlit
Object was in daylight at epoch
Visualization orbit readout
Latitude
Unknown
Longitude
Unknown
Altitude
Unknown
Speed
Unknown
Apparent Right ascension
Unknown
Apparent Declination
Unknown
Sunlit
N/A
Visualization observer readout
Local Sidereal Time
18:20:46
Azimuth
Unknown
Elevation
Unknown
Doppler factor
Unknown
Orbital elements
Apogee altitude
1,311.469 km
Perigee altitude
824.515 km
Semi-major axis
7,446.129 km
Eccentricity
0.0327
Inclination
100.5171°
RAAN
242.7769°
Arg. of periapsis
3.6365°
True anomaly
26.69591°
Mean anomaly
25.0488°
Eccentric anomaly
25.86615°
Mean motion
3.3779 °/min
Orbital period
106.57 mins
BSTAR
0.0011428
Loading maneuver chart data...
Computing Atmospheric mass density...

Documentation

Showing up to 5 results
|